This is the latest recevied weather packets stored in our database for station/object AA0PB. If no packets are shown the sender has not sent any weather packets the latest 10 day(s).
| Time | Temp. | Humidity | Pressure | Rain* | Wind** | Luminosity | Snow |
|---|---|---|---|---|---|---|---|
| 1777522176 | 17.22° C | 60% | 1020.4 hPa | 0 mm | - | 0 W/m² | - |
| 1777521872 | 17.22° C | 59% | 1020.6 hPa | 0 mm | - | 0 W/m² | - |
| 1777521568 | 17.22° C | 60% | 1020.4 hPa | 0 mm | - | 0 W/m² | - |
| 1777521266 | 17.22° C | 59% | 1020.3 hPa | 0 mm | - | 0 W/m² | - |
| 1777520962 | 17.22° C | 60% | 1020.1 hPa | 0 mm | - | 0 W/m² | - |
| 1777520660 | 17.78° C | 59% | 1020.2 hPa | 0 mm | - | 0 W/m² | - |
| 1777520356 | 17.78° C | 58% | 1020.1 hPa | 0 mm | - | 0 W/m² | - |
| 1777520054 | 18.33° C | 56% | 1020.1 hPa | 0 mm | - | 0 W/m² | - |
| 1777519751 | 18.89° C | 54% | 1020.1 hPa | 0 mm | - | 1 W/m² | - |
| 1777519447 | 18.89° C | 54% | 1020 hPa | 0 mm | - | 1 W/m² | - |
| 1777519144 | 19.44° C | 53% | 1020 hPa | 0 mm | - | 2 W/m² | - |
| 1777518839 | 19.44° C | 52% | 1020.1 hPa | 0 mm | - | 4 W/m² | - |
| 1777518536 | 20° C | 51% | 1019.8 hPa | 0 mm | - | 6 W/m² | - |
| 1777518231 | 20° C | 50% | 1020 hPa | 0 mm | - | 8 W/m² | - |
| 1777517928 | 20° C | 50% | 1019.8 hPa | 0 mm | - | 11 W/m² | - |
| 1777517624 | 20° C | 50% | 1020 hPa | 0 mm | - | 15 W/m² | - |
| 1777517322 | 20.56° C | 48% | 1019.9 hPa | 0 mm | - | 19 W/m² | - |
| 1777517021 | 21.11° C | 47% | 1020 hPa | 0 mm | - | 22 W/m² | - |
| 1777516718 | 21.11° C | 47% | 1019.9 hPa | 0 mm | - | 28 W/m² | - |
| 1777516414 | 21.11° C | 45% | 1019.8 hPa | 0 mm | - | 33 W/m² | - |
| 1777516109 | 21.67° C | 45% | 1019.7 hPa | 0 mm | - | 42 W/m² | - |
| 1777515806 | 21.11° C | 45% | 1019.8 hPa | 0 mm | - | 51 W/m² | - |
| 1777515503 | 22.22° C | 44% | 1020.1 hPa | 0 mm | - | 59 W/m² | - |
| 1777515200 | 22.22° C | 42% | 1020 hPa | 0 mm | - | 66 W/m² | - |
| 1777514896 | 21.67° C | 43% | 1019.9 hPa | 0 mm | - | 75 W/m² | - |
* Rain latest hour (hover to see other rain measurements)
** Current wind speed in m/s (hover to see current wind gust speed)